[[{"header":{"parameterUnit":"m.s-1","parameterCategory":1,"la1":30.2991,"la2":30.254,"lo1":-89.0895,"lo2":-89.0444,"dy":0.0017,"dx":0.0017,"nx":28,"ny":28,"refTime":"2024-05-31T21:00:00:Z","depth":0,"parameterNumber":2,"parameterNumberName":"U-component_of_WINDS"},"data":[0,0,0,0,0,0,0,0,0,0,0,0,0,0,0,0,0,0,0,0,0,0,0,0,0,0,0,0,0,0,0,0,0,0,0,0,0,0,0,0,0,0,0,0,0,0,0,0,0,0,0,0,0,0,0,0,0,0,-4.415,-4.4151,0,-4.4272,-4.4273,-4.4274,-4.4249,-4.4247,-4.4245,-4.4243,-4.4369,-4.4374,-4.438,0,0,0,0,0,0,0,0,0,0,0,0,0,-4.3898,-4.3903,-4.415,-4.4151,-4.4153,-4.4271,-4.4273,-4.4275,-4.425,-4.4247,-4.4244,-4.4242,-4.4367,-4.4374,-4.438,0,0,0,0,0,0,0,0,0,0,0,0,0,-4.4013,-4.3905,-4.4149,-4.4154,-4.4156,-4.4271,-4.4273,-4.4275,-4.425,-4.4247,-4.4244,-4.4241,-4.4365,-4.4373,-4.4381,-4.4499,0,0,-4.4406,-4.441,0,0,0,0,0,0,0,0,-4.4006,-4.4022,-4.4152,-4.4154,-4.4156,-4.4242,-4.4231,-4.435,-4.4251,-4.4215,-4.4243,-4.4239,-4.433,-4.4341,-4.4371,-4.4505,-4.451,-4.4407,-4.4412,-4.4415,-4.4418,0,0,0,0,0,0,0,-4.3998,-4.4016,-4.4198,-4.4154,-4.4157,-4.4152,-4.4164,-4.4253,-4.429,-4.4218,-4.4216,-4.4231,-4.433,-4.4363,-4.4374,-4.4512,-4.4407,-4.4414,-4.4419,-4.4422,-4.475,-4.4753,0,0,0,0,0,0,-4.3988,-4.401,-4.4194,-4.4201,-4.4071,-4.4159,-4.4173,-4.4218,-4.4288,-4.4296,-4.4234,-4.4229,-4.4351,-4.4364,-4.4378,-4.4519,-4.4415,-4.4423,-4.4428,-4.4746,-4.475,-4.4755,0,0,0,0,0,0,-4.3983,-4.4005,-4.4189,-4.4105,-4.4128,-4.4167,-4.4217,-4.4222,-4.4254,-4.43,-4.4307,-4.426,-4.4349,-4.4366,-4.4469,-4.4523,-4.4427,-4.4434,-4.4741,-4.4747,-4.4753,-4.4803,0,0,0,0,0,0,-4.3976,-4.4003,-4.4047,-4.4107,-4.4133,-4.4277,-4.4221,-4.4227,-4.4269,-4.4264,-4.4327,-4.4334,-4.4347,-4.4457,-4.4477,-4.4533,-4.4441,-4.4737,-4.4744,-4.4751,-4.4797,-4.481,-4.4821,0,0,0,0,0,-4.3967,-4.4057,-4.4049,-4.4072,-4.4189,-4.428,-4.4295,-4.4308,-4.4273,-4.4318,-4.4348,-4.4332,-4.4515,-4.4468,-4.449,-4.4549,-4.4733,-4.4742,-4.475,-4.4791,-4.4807,-4.4821,0,0,0,0,0,0,-4.4002,-4.4064,-4.4057,-4.4169,-4.4219,-4.4276,-4.4332,-4.4324,-4.4386,-4.4379,-4.4393,-4.4408,-4.4512,-4.4542,-4.4487,-4.4667,-4.4619,-4.4633,-4.4643,-4.4659,-4.467,-4.4659,-4.4447,0,0,0,0,0,-4.4023,-4.4091,-4.4143,-4.4236,-4.4262,-4.4293,-4.4334,-4.4339,-4.4392,-4.4414,-4.4451,-4.4504,-4.4573,-4.4618,-4.4685,-4.4803,-4.4816,-4.4855,-4.4867,-4.4877,-4.4887,-4.4951,-4.4969,-4.4783,-4.4783,-4.4782,0,0,-4.4066,-4.4109,-4.4151,-4.4244,-4.4284,-4.4355,-4.4311,-4.4388,-4.4441,-4.4426,-4.4523,-4.4554,-4.4614,-4.4724,-4.4775,-4.4752,-4.4942,-4.4888,-4.4895,-4.49,-4.4962,-4.498,-4.4995,-4.4788,-4.4787,-4.4786,0,0,-4.418,-4.4221,-4.4302,-4.4344,-4.4405,-4.4426,-4.4446,-4.4505,-4.4523,-4.4623,-4.4613,-4.4677,-4.4797,-4.4839,-4.4877,-4.5012,-4.5,-4.5034,-4.5096,-4.5158,-4.5173,-4.5186,-4.5232,-4.5249,-4.5045,-4.5045,-4.5045,0,-4.4226,-4.4331,-4.4345,-4.4423,-4.4465,-4.4456,-4.4539,-4.4579,-4.4659,-4.4688,-4.4662,-4.4812,-4.4853,-4.4973,-4.5006,-4.5038,-4.5061,-4.5024,-4.517,-4.5183,-4.5195,-4.5239,-4.5257,-4.5049,-4.5048,-4.5048,-4.5047,0,-4.4384,-4.4458,-4.4517,-4.4594,-4.4643,-4.4723,-4.475,-4.4799,-4.4802,-4.4826,-4.4928,-4.4976,-4.5052,-4.5082,-4.5086,-4.5204,-4.5188,-4.5166,-4.5117,-4.5216,-4.5258,-4.5275,-4.5054,-4.5052,-4.5051,-4.505,0,0,-4.4518,-4.4605,-4.4626,-4.4661,-4.473,-4.4787,-4.4869,-4.4943,-4.4983,-4.5041,-4.5109,-4.5212,-4.5193,-4.5235,-4.5245,-4.5301,-4.5403,-4.5272,-4.5274,-4.5292,-4.5534,-4.5547,-4.5566,-4.5397,-4.54,-4.5403,-4.5528,0,-4.4636,-4.4777,-4.4794,-4.492,-4.4988,-4.4983,-4.5054,-4.5105,-4.5131,-4.5193,-4.5223,-4.5294,-4.5265,-4.5291,-4.5346,-4.5378,-4.5451,-4.537,-4.5459,-4.5462,-4.5439,-4.5588,-4.5602,-4.5717,-4.5545,-4.5548,-4.555,0,-4.4791,-4.4852,-4.4985,-4.5045,-4.5075,-4.5138,-4.5208,-4.5268,-4.5327,-4.5342,-4.5391,-4.5394,-4.548,-4.5432,-4.5549,-4.5494,-4.5533,-4.5555,-4.556,-4.5564,-4.5508,-4.5594,-4.5754,-4.577,-4.5576,-4.5574,-4.5572,0,-4.4872,-4.4989,-4.5083,-4.5114,-4.5187,-4.5232,-4.5265,-4.532,-4.5364,-4.5427,-4.5455,-4.5528,-4.5566,-4.5623,-4.5646,-4.5609,-4.5762,-4.5716,-4.5776,-4.5775,-4.5804,-4.5801,-4.5969,-4.5836,-4.5836,-4.5835,-4.5835,0,-4.5,-4.508,-4.512,-4.5177,-4.5269,-4.5289,-4.5379,-4.541,-4.546,-4.5524,-4.5527,-4.5587,-4.5616,-4.5681,-4.5701,-4.5794,-4.5813,-4.5827,-4.5831,-4.5825,-4.5822,-4.5847,-4.5838,-4.584,-4.5839,-4.5838,-4.5837,0,-4.5103,-4.5133,-4.5235,-4.5298,-4.5315,-4.5379,-4.5433,-4.549,-4.5517,-4.5598,-4.5619,-4.5662,-4.5739,-4.5769,-4.5864,-4.5878,-4.5985,-4.5984,-4.5964,-4.5964,-4.6021,-4.6014,-4.6207,-4.6232,-4.6086,-4.6088,-4.6089,0,-4.518,-4.5241,-4.5311,-4.5354,-4.5388,-4.5458,-4.5503,-4.5528,-4.5575,-4.5648,-4.5696,-4.5773,-4.5835,-4.596,-4.6,-4.6074,-4.6072,-4.6135,-4.6083,-4.6075,-4.6069,-4.6064,-4.6069,-4.6143,-4.6144,-4.6146,-4.6147,0,-4.5312,-4.5325,-4.5389,-4.546,-4.5514,-4.5571,-4.5627,-4.5662,-4.5696,-4.5749,-4.5828,-4.5877,-4.5975,-4.6051,-4.6127,-4.6163,-4.616,-4.6164,-4.6181,-4.6173,-4.6157,-4.6164,-4.5986,-4.6158,-4.6157,-4.6156,-4.6155,-4.6155,-4.5402,-4.5457,-4.5514,-4.5587,-4.5632,-4.5684,-4.574,-4.5775,-4.5841,-4.5921,-4.5934,-4.6018,-4.6078,-4.6179,-4.6219,-4.6286,-4.6269,-4.6295,-4.6301,-4.6305,-4.6308,-4.6151,-4.6301,-4.63,-4.63,-4.63,-4.63,0,-4.5531,-4.5569,-4.5636,-4.5714,-4.5771,-4.5766,-4.5828,-4.5877,-4.5951,-4.6006,-4.6069,-4.616,-4.6236,-4.6284,-4.636,-4.6405,-4.6405,-4.6423,-4.6418,-4.6426,-4.632,-4.6296,-4.6421,-4.6421,-4.6421,-4.6421,-4.6421,-4.6421,-4.5605,-4.5697,-4.5717,-4.5832,-4.587,-4.5952,-4.5988,-4.6037,-4.6081,-4.6183,-4.6245,-4.6277,-4.633,-4.641,-4.648,-4.6492,-4.6519,-4.6537,-4.6548,-4.6447,-4.6434,-4.6421,-4.6399,-4.6544,-4.6544,-4.6648,-4.6649,-4.665]},{"header":{"parameterUnit":"m.s-1","parameterCategory":1,"la1":30.2991,"la2":30.254,"lo1":-89.0895,"lo2":-89.0444,"dy":0.0017,"dx":0.0017,"nx":28,"ny":28,"refTime":"2024-05-31T21:00:00:Z","depth":0,"parameterNumber":3,"parameterNumberName":"V-component_of_WINDS"},"data":[0,0,0,0,0,0,0,0,0,0,0,0,0,0,0,0,0,0,0,0,0,0,0,0,0,0,0,0,0,0,0,0,0,0,0,0,0,0,0,0,0,0,0,0,0,0,0,0,0,0,0,0,0,0,0,0,0,0,4.7669,4.7669,0,4.772,4.772,4.7721,4.7751,4.7751,4.7751,4.7752,4.78,4.7801,4.7802,0,0,0,0,0,0,0,0,0,0,0,0,0,4.7589,4.759,4.7669,4.7669,4.767,4.772,4.772,4.7721,4.7751,4.7751,4.7751,4.7752,4.7799,4.7801,4.7802,0,0,0,0,0,0,0,0,0,0,0,0,0,4.763,4.7591,4.7668,4.7691,4.7693,4.772,4.772,4.7721,4.7751,4.7751,4.7752,4.7752,4.7799,4.78,4.7802,4.7809,0,0,4.7807,4.7808,0,0,0,0,0,0,0,0,4.7628,4.7633,4.7687,4.7689,4.7692,4.7729,4.771,4.775,4.7751,4.7729,4.7752,4.7752,4.7776,4.7779,4.7788,4.7811,4.7813,4.7808,4.7809,4.7809,4.781,0,0,0,0,0,0,0,4.7625,4.7631,4.7689,4.7688,4.7691,4.7696,4.7702,4.7718,4.775,4.7731,4.7733,4.7739,4.7777,4.7787,4.779,4.7814,4.7807,4.7809,4.781,4.7811,4.7839,4.7838,0,0,0,0,0,0,4.7619,4.7628,4.7687,4.769,4.766,4.7697,4.7704,4.7717,4.775,4.7756,4.7739,4.774,4.7784,4.7788,4.7792,4.7798,4.7809,4.7811,4.7812,4.7839,4.7839,4.7838,0,0,0,0,0,0,4.7618,4.7624,4.7685,4.766,4.7668,4.7698,4.7713,4.7718,4.7728,4.7757,4.7762,4.7743,4.7784,4.7789,4.7803,4.7801,4.7812,4.7813,4.7839,4.7839,4.7838,4.7814,0,0,0,0,0,0,4.7615,4.7624,4.7629,4.766,4.7669,4.7698,4.7713,4.7719,4.7731,4.7734,4.7762,4.7767,4.7785,4.7801,4.7805,4.7803,4.7815,4.784,4.7839,4.7839,4.7815,4.7813,4.7811,0,0,0,0,0,4.7612,4.762,4.7629,4.7636,4.7676,4.7698,4.7703,4.7725,4.7731,4.7734,4.7752,4.7766,4.78,4.7802,4.7807,4.7806,4.784,4.7839,4.7839,4.7816,4.7813,4.7811,0,0,0,0,0,0,4.7587,4.7624,4.7635,4.7653,4.7672,4.7703,4.7709,4.7722,4.7739,4.774,4.7765,4.7771,4.7782,4.7795,4.7796,4.7811,4.7821,4.7822,4.7802,4.78,4.7798,4.7794,4.7816,0,0,0,0,0,4.7583,4.76,4.7631,4.7644,4.7653,4.7679,4.7689,4.7704,4.7724,4.7732,4.7751,4.7769,4.7783,4.7792,4.7808,4.7817,4.7821,4.7818,4.7816,4.7814,4.7814,4.7816,4.7813,4.7836,4.7836,4.7836,0,0,4.7576,4.7599,4.7608,4.7639,4.7656,4.7669,4.7686,4.7701,4.771,4.7734,4.7749,4.7762,4.7783,4.7794,4.78,4.7806,4.7808,4.7813,4.7811,4.7812,4.7815,4.7812,4.781,4.7836,4.7836,4.7836,0,0,4.757,4.759,4.7602,4.7617,4.7642,4.7658,4.7661,4.7689,4.7699,4.7714,4.7731,4.7742,4.7767,4.778,4.779,4.7784,4.7795,4.7788,4.7776,4.7778,4.7776,4.7774,4.7769,4.7767,4.7787,4.7787,4.7787,0,4.7558,4.7582,4.7605,4.7618,4.763,4.7652,4.7661,4.7675,4.7702,4.7709,4.7715,4.7744,4.776,4.7773,4.7771,4.7779,4.778,4.7785,4.7775,4.7773,4.7772,4.7767,4.7766,4.7786,4.7786,4.7786,4.7787,0,4.7564,4.7579,4.7585,4.7611,4.7623,4.7634,4.7656,4.7665,4.7677,4.7692,4.7704,4.7724,4.7741,4.7745,4.7758,4.7758,4.7761,4.777,4.7781,4.7768,4.7764,4.7763,4.7784,4.7785,4.7785,4.7786,0,0,4.7547,4.7582,4.7584,4.7594,4.7621,4.7632,4.7642,4.766,4.7665,4.7682,4.7689,4.7708,4.7716,4.7727,4.7741,4.7742,4.7732,4.7751,4.7752,4.7745,4.7729,4.7721,4.7719,4.774,4.774,4.7739,4.7726,0,4.7543,4.7564,4.7583,4.7596,4.7608,4.7627,4.7635,4.765,4.7663,4.7673,4.7687,4.7699,4.771,4.7716,4.7719,4.7733,4.7729,4.7734,4.7744,4.7744,4.7737,4.7717,4.7709,4.7696,4.7725,4.7725,4.7725,0,4.7543,4.7559,4.7573,4.7594,4.76,4.7607,4.7622,4.7633,4.7649,4.7658,4.7668,4.7682,4.7689,4.7698,4.7708,4.7711,4.7715,4.7722,4.7722,4.7723,4.7733,4.7715,4.7693,4.769,4.7723,4.7723,4.7724,0,4.7526,4.755,4.7561,4.7569,4.7595,4.7599,4.7609,4.7626,4.7634,4.7646,4.7651,4.7664,4.7671,4.7679,4.7694,4.77,4.7701,4.7712,4.7706,4.7705,4.7705,4.7705,4.7681,4.771,4.771,4.771,4.771,0,4.752,4.7527,4.7553,4.7559,4.7566,4.7586,4.7591,4.7603,4.7617,4.7623,4.764,4.7646,4.7666,4.7673,4.7685,4.7688,4.7692,4.7697,4.77,4.7695,4.7694,4.7698,4.7699,4.771,4.771,4.771,4.771,0,4.7502,4.752,4.7532,4.7555,4.756,4.7564,4.7582,4.7587,4.7599,4.7607,4.761,4.7629,4.7637,4.7653,4.7667,4.7674,4.7674,4.7681,4.7669,4.7671,4.7663,4.7662,4.764,4.7637,4.7669,4.7669,4.7669,0,4.7497,4.7503,4.7525,4.753,4.754,4.755,4.7557,4.7575,4.7582,4.7598,4.76,4.761,4.7619,4.763,4.7644,4.7653,4.7658,4.7649,4.766,4.7653,4.7655,4.7654,4.7653,4.7647,4.7646,4.7646,4.7646,0,4.7485,4.7492,4.7503,4.7515,4.7524,4.7534,4.7546,4.7549,4.7569,4.7575,4.7583,4.759,4.7602,4.761,4.762,4.7629,4.7639,4.7642,4.7641,4.7635,4.7628,4.7629,4.7661,4.7643,4.7643,4.7643,4.7644,4.7644,4.7472,4.7476,4.7491,4.7501,4.7511,4.752,4.7525,4.7536,4.7544,4.7556,4.7565,4.7572,4.7583,4.7598,4.7605,4.7609,4.7615,4.7613,4.7613,4.7612,4.7608,4.7628,4.7611,4.7611,4.7611,4.7611,4.7612,0,4.7459,4.7468,4.7477,4.7491,4.7498,4.7507,4.7519,4.7523,4.753,4.754,4.7547,4.7554,4.7561,4.7574,4.7581,4.7581,4.7586,4.7583,4.7582,4.7583,4.7604,4.7604,4.7578,4.7578,4.7578,4.7578,4.7578,4.7578,4.7452,4.7459,4.7467,4.7476,4.7485,4.7493,4.7498,4.7505,4.7512,4.752,4.7526,4.7534,4.7544,4.7551,4.7556,4.756,4.7561,4.7555,4.7559,4.7579,4.7582,4.7585,4.7584,4.7555,4.7555,4.7537,4.7537,4.7537]}]]